K6POO-1 Weather Reports


time (UTC)temp
C
wind
direction
speed
KPH
gust
KPH
rain 1hr
cm
rain 24hr
cm
rain mn
cm
humidity
%
barometer
mb
20260507030217 13 335 24.1 29.0 0.00 0.00 0.00 83 1018.6
20260507025714 13 327 11.3 37.0 0.00 0.00 0.00 84 1018.4
20260507025211 13 320 19.3 35.4 0.00 0.00 0.00 84 1018.4
20260507024709 13 312 19.3 38.6 0.00 0.00 0.00 84 1018.4
20260507024206 13 329 29.0 37.0 0.00 0.00 0.00 83 1018.4
20260507023701 13 326 25.7 32.2 0.00 0.00 0.00 83 1018.4
20260507023159 13 319 9.7 14.5 0.00 0.00 0.00 82 1018.3
20260507022656 14 336 6.4 25.7 0.00 0.00 0.00 80 1018.4
20260507022152 14 342 8.0 17.7 0.00 0.00 0.00 80 1018.2
20260507021648 15 312 19.3 24.1 0.00 0.00 0.00 78 1018.2
20260507021143 15 337 19.3 20.9 0.00 0.00 0.00 78 1018.3
20260507020642 15 307 14.5 30.6 0.00 0.00 0.00 78 1018.2
20260507020138 15 324 17.7 37.0 0.00 0.00 0.00 77 1018.2
20260507015637 15 337 17.7 24.1 0.00 0.00 0.00 77 1018.2
20260507015134 15 316 16.1 24.1 0.00 0.00 0.00 77 1018.4
20260507014631 16 306 4.8 29.0 0.00 0.00 0.00 75 1018.4
20260507014126 16 355 17.7 24.1 0.00 0.00 0.00 75 1018.4
20260507013623 15 27 4.8 24.1 0.00 0.00 0.00 76 1018.2
20260507013120 15 320 19.3 24.1 0.00 0.00 0.00 75 1018.3
20260507012617 16 313 19.3 29.0 0.00 0.00 0.00 75 1018.3
20260507012113 16 343 11.3 24.1 0.00 0.00 0.00 74 1018.2
20260507011611 16 324 19.3 27.4 0.00 0.00 0.00 73 1018.4
20260507011107 16 349 16.1 25.7 0.00 0.00 0.00 73 1018.4
20260507010602 16 0 9.7 20.9 0.00 0.00 0.00 73 1018.2
20260507010059 16 346 8.0 20.9 0.00 0.00 0.00 73 1018.3
20260507005556 16 109 4.8 20.9 0.00 0.00 0.00 74 1018.3
20260507005052 16 336 11.3 27.4 0.00 0.00 0.00 74 1018.3
20260507004549 17 336 14.5 24.1 0.00 0.00 0.00 72 1018.2
20260507004046 17 333 8.0 24.1 0.00 0.00 0.00 72 1018.3
20260507003542 17 348 12.9 24.1 0.00 0.00 0.00 70 1018.1
20260507003032 17 346 19.3 22.5 0.00 0.00 0.00 69 1018.3
20260507002529 17 331 8.0 14.5 0.00 0.00 0.00 70 1018.3
20260507002024 18 5 11.3 17.7 0.00 0.00 0.00 69 1018.5
20260507001521 17 324 11.3 25.7 0.00 0.00 0.00 70 1018.4
20260507001019 17 327 14.5 24.1 0.00 0.00 0.00 71 1018.3
20260507000514 17 316 9.7 22.5 0.00 0.00 0.00 70 1018.5
20260507000010 18 329 19.3 22.5 0.00 0.00 0.00 68 1018.5
20260506235508 18 315 12.9 27.4 0.00 0.00 0.00 68 1018.5
20260506235003 17 328 17.7 17.7 0.00 0.00 0.00 69 1018.3
20260506234501 17 347 14.5 20.9 0.00 0.00 0.00 71 1018.5
20260506233959 17 330 6.4 22.5 0.00 0.00 0.00 71 1018.7
20260506233455 17 315 4.8 24.1 0.00 0.00 0.00 69 1018.7
20260506232951 18 354 6.4 19.3 0.00 0.00 0.00 68 1018.6
20260506232448 18 353 9.7 22.5 0.00 0.00 0.00 68 1018.5
20260506231944 18 12 4.8 20.9 0.00 0.00 0.00 68 1018.5
20260506231441 18 11 14.5 22.5 0.00 0.00 0.00 68 1018.8
20260506230938 18 332 12.9 17.7 0.00 0.00 0.00 68 1018.7
20260506230435 18 339 12.9 19.3 0.00 0.00 0.00 68 1018.7
20260506225931 18 295 8.0 20.9 0.00 0.00 0.00 68 1018.7
20260506225428 18 339 14.5 24.1 0.00 0.00 0.00 69 1018.8
20260506224926 18 233 11.3 20.9 0.00 0.00 0.00 69 1018.8
20260506224423 18 303 8.0 19.3 0.00 0.00 0.00 67 1019.1
20260506223919 18 319 3.2 17.7 0.00 0.00 0.00 68 1019.1
20260506223414 18 311 14.5 25.7 0.00 0.00 0.00 68 1019.2
20260506222912 18 259 16.1 24.1 0.00 0.00 0.00 69 1019.2
20260506222408 18 345 4.8 22.5 0.00 0.00 0.00 68 1019.3
20260506221906 18 294 9.7 14.5 0.00 0.00 0.00 67 1019.2
20260506221402 18 353 14.5 27.4 0.00 0.00 0.00 67 1019.5
20260506220901 18 310 8.0 16.1 0.00 0.00 0.00 66 1019.4
20260506220356 18 305 12.9 22.5 0.00 0.00 0.00 68 1019.5
20260506215853 18 268 12.9 24.1 0.00 0.00 0.00 66 1019.7
20260506215348 19 326 12.9 17.7 0.00 0.00 0.00 66 1019.7
20260506214845 19 341 9.7 17.7 0.00 0.00 0.00 66 1019.5
20260506214341 19 331 17.7 19.3 0.00 0.00 0.00 65 1019.7
20260506213840 19 343 8.0 20.9 0.00 0.00 0.00 65 1019.6
20260506213337 20 289 9.7 17.7 0.00 0.00 0.00 65 1019.7
20260506212834 20 300 6.4 16.1 0.00 0.00 0.00 64 1019.7
20260506212330 20 321 3.2 16.1 0.00 0.00 0.00 64 1019.6
20260506211825 20 263 6.4 12.9 0.00 0.00 0.00 62 1019.8
20260506211321 20 247 14.5 14.5 0.00 0.00 0.00 63 1019.7
20260506210819 20 333 11.3 16.1 0.00 0.00 0.00 65 1019.8
20260506210315 19 351 4.8 17.7 0.00 0.00 0.00 66 1019.9
20260506205812 20 345 14.5 20.9 0.00 0.00 0.00 64 1019.8
20260506205308 20 304 6.4 12.9 0.00 0.00 0.00 65 1019.8
20260506204804 19 295 6.4 11.3 0.00 0.00 0.00 67 1019.8
20260506204302 19 11 16.1 22.5 0.00 0.00 0.00 67 1019.8
20260506203800 18 269 6.4 20.9 0.00 0.00 0.00 68 1020.0
20260506203257 19 38 9.7 16.1 0.00 0.00 0.00 66 1020.0
20260506202754 20 353 11.3 22.5 0.00 0.00 0.00 66 1020.1
20260506202251 19 80 6.4 6.4 0.00 0.00 0.00 68 1020.0
20260506201747 19 336 6.4 17.7 0.00 0.00 0.00 65 1020.1
20260506201244 20 342 8.0 16.1 0.00 0.00 0.00 65 1020.2
20260506200741 20 0 11.3 14.5 0.00 0.00 0.00 64 1020.3
20260506200238 19 346 6.4 8.0 0.00 0.00 0.00 66 1020.5
20260506195734 19 353 9.7 14.5 0.00 0.00 0.00 66 1020.4
20260506195230 19 35 6.4 14.5 0.00 0.00 0.00 66 1020.5
20260506194728 20 340 11.3 19.3 0.00 0.00 0.00 63 1020.5
20260506194225 20 43 3.2 6.4 0.00 0.00 0.00 65 1020.4
20260506193722 19 308 8.0 8.0 0.00 0.00 0.00 65 1020.6
20260506193219 18 329 9.7 12.9 0.00 0.00 0.00 66 1020.5
20260506192715 18 291 6.4 12.9 0.00 0.00 0.00 66 1020.7
20260506192212 19 21 8.0 14.5 0.00 0.00 0.00 65 1020.7
20260506191708 19 211 1.6 8.0 0.00 0.00 0.00 65 1020.7
20260506191204 19 27 4.8 8.0 0.00 0.00 0.00 66 1020.7
20260506190702 18 13 0.0 9.7 0.00 0.00 0.00 67 1020.6
20260506190153 18 86 6.4 14.5 0.00 0.00 0.00 67 1020.8
20260506185650 18 40 4.8 12.9 0.00 0.00 0.00 67 1020.9
20260506185146 18 352 3.2 9.7 0.00 0.00 0.00 68 1020.8
20260506184639 18 33 8.0 11.3 0.00 0.00 0.00 67 1020.8
20260506184136 18 344 12.9 17.7 0.00 0.00 0.00 67 1020.6
20260506183632 18 35 9.7 9.7 0.00 0.00 0.00 68 1020.9
20260506183128 17 85 4.8 9.7 0.00 0.00 0.00 69 1020.9
20260506182626 18 16 6.4 16.1 0.00 0.00 0.00 68 1020.8
20260506182122 17 63 6.4 8.0 0.00 0.00 0.00 70 1020.8
20260506181621 17 274 3.2 8.0 0.00 0.00 0.00 72 1021.0
20260506181118 17 317 3.2 11.3 0.00 0.00 0.00 70 1021.0
20260506180614 17 22 1.6 6.4 0.00 0.00 0.00 69 1020.9
20260506180111 17 222 9.7 11.3 0.00 0.00 0.00 68 1020.6
20260506175607 17 34 3.2 6.4 0.00 0.00 0.00 69 1020.9
20260506175103 17 0 4.8 6.4 0.00 0.00 0.00 70 1020.7
20260506174602 17 293 3.2 12.9 0.00 0.00 0.00 69 1020.8
20260506174058 17 316 3.2 6.4 0.00 0.00 0.00 68 1020.8
20260506173556 17 160 6.4 8.0 0.00 0.00 0.00 69 1020.7
20260506173052 17 326 6.4 11.3 0.00 0.00 0.00 69 1020.8
20260506172550 17 34 1.6 6.4 0.00 0.00 0.00 71 1020.8
20260506172045 16 64 4.8 9.7 0.00 0.00 0.00 73 1020.8
20260506171542 16 12 6.4 11.3 0.00 0.00 0.00 71 1021.1
20260506171040 16 304 1.6 3.2 0.00 0.00 0.00 71 1021.0
20260506170538 16 266 0.0 6.4 0.00 0.00 0.00 72 1020.9
20260506170035 16 303 1.6 6.4 0.00 0.00 0.00 74 1021.1
20260506165533 15 302 6.4 8.0 0.00 0.00 0.00 74 1021.2
20260506165024 16 250 3.2 6.4 0.00 0.00 0.00 74 1021.1
20260506164521 16 191 1.6 3.2 0.00 0.00 0.00 73 1020.8
20260506164018 16 350 3.2 9.7 0.00 0.00 0.00 71 1021.0
20260506163514 16 341 3.2 4.8 0.00 0.00 0.00 73 1021.0
20260506163010 15 32 3.2 6.4 0.00 0.00 0.00 74 1021.2
20260506162507 15 0 3.2 4.8 0.00 0.00 0.00 74 1021.1
20260506162003 15 24 3.2 4.8 0.00 0.00 0.00 75 1021.0
20260506161501 15 135 0.0 3.2 0.00 0.00 0.00 76 1021.0
20260506160958 15 146 3.2 3.2 0.00 0.00 0.00 77 1020.9
20260506160455 15 220 3.2 3.2 0.00 0.00 0.00 77 1021.0
20260506155953 15 307 3.2 6.4 0.00 0.00 0.00 77 1021.0
20260506155451 15 247 3.2 6.4 0.00 0.00 0.00 78 1021.0
20260506153622 14 186 1.6 3.2 0.00 0.00 0.00 80 1021.0
20260506153120 14 283 0.0 4.8 0.00 0.00 0.00 80 1020.8
20260506152616 14 268 3.2 8.0 0.00 0.00 0.00 80 1021.1
20260506152115 14 93 0.0 6.4 0.00 0.00 0.00 81 1020.9
20260506151613 14 23 3.2 3.2 0.00 0.00 0.00 82 1020.9
20260506151109 14 184 4.8 6.4 0.00 0.00 0.00 82 1020.9
20260506150606 13 141 0.0 3.2 0.00 0.00 0.00 82 1021.0
20260506145600 13 210 0.0 6.4 0.00 0.00 0.00 81 1020.9
20260506145057 13 226 1.6 4.8 0.00 0.00 0.00 82 1020.8
20260506144554 13 287 3.2 4.8 0.00 0.00 0.00 82 1020.8
20260506144051 13 222 3.2 3.2 0.00 0.00 0.00 82 1020.9
20260506143548 13 229 0.0 3.2 0.00 0.00 0.00 82 1020.9
20260506143047 13 230 0.0 1.6 0.00 0.00 0.00 83 1020.8
20260506142544 13 255 0.0 6.4 0.00 0.00 0.00 83 1020.7
20260506142042 13 174 3.2 4.8 0.00 0.00 0.00 83 1020.8
20260506141539 13 268 6.4 6.4 0.00 0.00 0.00 83 1020.8
20260506141038 13 195 4.8 6.4 0.00 0.00 0.00 84 1020.6
20260506140535 13 182 3.2 4.8 0.00 0.00 0.00 84 1020.5
20260506140032 13 255 4.8 6.4 0.00 0.00 0.00 84 1020.5
20260506135529 12 284 1.6 4.8 0.00 0.00 0.00 85 1020.5
20260506135025 12 239 0.0 4.8 0.00 0.00 0.00 85 1020.6
20260506134521 12 164 3.2 4.8 0.00 0.00 0.00 86 1020.4
20260506134017 12 217 0.0 3.2 0.00 0.00 0.00 86 1020.4
20260506133515 12 209 1.6 4.8 0.00 0.00 0.00 86 1020.4
20260506133012 12 175 1.6 3.2 0.00 0.00 0.00 85 1020.5
20260506132509 12 205 1.6 3.2 0.00 0.00 0.00 85 1020.1
20260506132006 12 157 3.2 3.2 0.00 0.00 0.00 84 1020.1
20260506131503 12 168 1.6 3.2 0.00 0.00 0.00 84 1020.2
20260506131000 12 10 0.0 3.2 0.00 0.00 0.00 84 1020.0
20260506130456 12 274 0.0 4.8 0.00 0.00 0.00 84 1020.1
20260506125954 12 238 1.6 3.2 0.00 0.00 0.00 84 1020.0
20260506125452 12 189 0.0 3.2 0.00 0.00 0.00 85 1020.0
20260506124949 12 212 0.0 6.4 0.00 0.00 0.00 85 1019.9
20260506124447 12 253 0.0 1.6 0.00 0.00 0.00 85 1019.7
20260506123945 12 184 1.6 3.2 0.00 0.00 0.00 85 1020.0
20260506123443 12 165 3.2 3.2 0.00 0.00 0.00 86 1019.8
20260506122940 12 186 1.6 3.2 0.00 0.00 0.00 86 1019.8
20260506122437 12 215 3.2 4.8 0.00 0.00 0.00 86 1019.9
20260506121935 12 177 3.2 4.8 0.00 0.00 0.00 86 1019.8
20260506121431 12 184 3.2 3.2 0.00 0.00 0.00 86 1020.0
20260506120929 12 210 3.2 6.4 0.00 0.00 0.00 87 1019.8
20260506120426 12 168 3.2 3.2 0.00 0.00 0.00 87 1019.9
20260506115923 12 204 6.4 6.4 0.00 0.00 0.00 87 1019.8
20260506115421 12 176 0.0 3.2 0.00 0.00 0.00 87 1020.0
20260506114919 12 168 1.6 3.2 0.00 0.00 0.00 87 1019.8
20260506114417 12 140 0.0 3.2 0.00 0.00 0.00 86 1019.7
20260506113915 12 177 1.6 3.2 0.00 0.00 0.00 86 1019.6
20260506113412 12 224 3.2 3.2 0.00 0.00 0.00 86 1019.7
20260506112909 12 176 3.2 6.4 0.00 0.00 0.00 87 1019.4
20260506112407 12 169 3.2 4.8 0.00 0.00 0.00 87 1019.5
20260506111904 12 174 3.2 3.2 0.00 0.00 0.00 86 1019.6
20260506111402 12 185 3.2 4.8 0.00 0.00 0.00 87 1019.3
20260506110858 12 201 3.2 4.8 0.00 0.00 0.00 87 1019.4
20260506110356 12 190 3.2 4.8 0.00 0.00 0.00 87 1019.3
20260506105853 12 133 3.2 4.8 0.00 0.00 0.00 87 1019.5
20260506105349 12 124 3.2 4.8 0.00 0.00 0.00 86 1019.3
20260506104847 12 166 1.6 3.2 0.00 0.00 0.00 87 1019.5
20260506104344 12 13 0.0 4.8 0.00 0.00 0.00 86 1019.4
20260506103842 12 175 3.2 3.2 0.00 0.00 0.00 86 1019.3
20260506103339 12 191 0.0 3.2 0.00 0.00 0.00 86 1019.4
20260506102836 12 169 1.6 3.2 0.00 0.00 0.00 86 1019.2
20260506102334 12 264 4.8 4.8 0.00 0.00 0.00 86 1019.2
20260506101831 12 201 3.2 6.4 0.00 0.00 0.00 85 1019.1
20260506101327 12 157 3.2 4.8 0.00 0.00 0.00 85 1019.2
20260506100825 12 147 0.0 4.8 0.00 0.00 0.00 85 1019.0
20260506100323 12 174 0.0 3.2 0.00 0.00 0.00 85 1019.4
20260506095822 12 217 3.2 6.4 0.00 0.00 0.00 85 1019.1
20260506095318 12 204 4.8 6.4 0.00 0.00 0.00 85 1019.4
20260506094815 12 166 1.6 3.2 0.00 0.00 0.00 84 1019.3
20260506094314 12 232 0.0 3.2 0.00 0.00 0.00 84 1019.2
20260506093812 12 181 0.0 3.2 0.00 0.00 0.00 85 1019.3
20260506093308 12 191 3.2 4.8 0.00 0.00 0.00 85 1019.1
20260506092806 12 162 1.6 3.2 0.00 0.00 0.00 85 1019.2
20260506092306 12 126 0.0 6.4 0.00 0.00 0.00 85 1019.3
20260506091801 12 201 3.2 4.8 0.00 0.00 0.00 85 1019.2
20260506091258 12 168 3.2 3.2 0.00 0.00 0.00 85 1019.3
20260506090756 12 196 3.2 3.2 0.00 0.00 0.00 85 1019.2
20260506090253 12 174 4.8 4.8 0.00 0.00 0.00 85 1019.1
20260506085749 12 167 3.2 3.2 0.00 0.00 0.00 85 1019.1
20260506085246 12 178 1.6 3.2 0.00 0.00 0.00 85 1019.2
20260506084742 12 143 3.2 4.8 0.00 0.00 0.00 85 1019.1
20260506084239 12 167 0.0 3.2 0.00 0.00 0.00 84 1019.2
20260506083736 12 198 0.0 3.2 0.00 0.00 0.00 84 1019.3
20260506083233 13 197 3.2 3.2 0.00 0.00 0.00 83 1019.5
20260506082731 13 149 0.0 1.6 0.00 0.00 0.00 83 1019.2
20260506082226 13 353 3.2 6.4 0.00 0.00 0.00 82 1019.3
20260506081724 13 0 4.8 11.3 0.00 0.00 0.00 82 1019.3
20260506081221 13 242 1.6 6.4 0.00 0.00 0.00 82 1019.3
20260506080719 13 214 0.0 3.2 0.00 0.00 0.00 82 1019.2
20260506080215 13 172 0.0 3.2 0.00 0.00 0.00 82 1019.2
20260506073159 13 296 0.0 4.8 0.00 0.00 0.00 82 1019.0
20260506072651 13 354 3.2 4.8 0.00 0.00 0.00 82 1018.9
20260506072149 13 327 4.8 4.8 0.00 0.00 0.00 82 1019.1
20260506071646 13 258 4.8 6.4 0.00 0.00 0.00 81 1018.9
20260506071143 13 265 0.0 6.4 0.00 0.00 0.00 81 1018.9
20260506070640 13 350 3.2 8.0 0.00 0.00 0.00 81 1018.7
20260506070137 13 196 3.2 6.4 0.00 0.00 0.00 81 1018.9
20260506062114 13 129 1.6 3.2 0.00 0.23 0.23 82 1018.4
20260506061610 13 135 1.6 3.2 0.00 0.23 0.23 82 1018.5
20260506061108 13 347 0.0 3.2 0.00 0.23 0.23 82 1018.4
20260506060607 13 170 6.4 6.4 0.00 0.23 0.23 81 1018.5
20260506051035 13 64 0.0 3.2 0.00 0.23 0.23 82 1018.2
20260506050532 13 235 3.2 4.8 0.00 0.23 0.23 83 1018.2
20260506045023 13 216 4.8 9.7 0.00 0.23 0.23 84 1018.2
20260506044521 13 230 6.4 12.9 0.00 0.23 0.23 84 1018.0
20260506044017 13 218 3.2 6.4 0.00 0.23 0.23 84 1018.1
20260506043515 13 130 0.0 3.2 0.00 0.23 0.23 83 1018.1
20260506043014 13 152 3.2 4.8 0.00 0.23 0.23 83 1018.0
20260506042512 13 180 3.2 4.8 0.00 0.23 0.23 82 1017.8
20260506042009 13 258 4.8 4.8 0.00 0.23 0.23 82 1017.7
20260506041509 13 122 3.2 8.0 0.00 0.23 0.23 81 1017.6
20260506041005 13 290 3.2 8.0 0.00 0.23 0.23 81 1017.8
20260506040503 13 213 1.6 6.4 0.00 0.23 0.23 82 1017.6
20260506035958 13 204 3.2 8.0 0.00 0.23 0.23 82 1017.5
20260506035455 13 230 3.2 4.8 0.00 0.23 0.23 82 1017.4
20260506034952 13 203 3.2 12.9 0.00 0.23 0.23 82 1017.4
20260506034449 13 220 9.7 16.1 0.00 0.23 0.23 82 1017.1
20260506033946 13 249 3.2 17.7 0.00 0.23 0.23 81 1017.0
20260506033444 13 205 3.2 11.3 0.00 0.23 0.23 81 1017.0
20260506032940 13 218 3.2 9.7 0.00 0.23 0.23 81 1017.0
20260506032438 13 263 8.0 14.5 0.00 0.23 0.23 81 1016.9
20260506031934 13 294 0.0 8.0 0.00 0.23 0.23 80 1016.8
20260506031431 13 292 6.4 14.5 0.00 0.23 0.23 81 1016.8
20260506030929 13 251 6.4 6.4 0.00 0.23 0.23 81 1016.8